Overview Statistics Trail Chart Weather Telemetry Raw packets
 

This is the latest recevied weather packets stored in our database for station/object EA1HTW-13. If no packets are shown the sender has not sent any weather packets the latest 10 day(s).

<< 51 52 53 54 55 56 57 >>
Time Temp. Humidity Pressure Rain* Wind** Luminosity Snow
1777302141 30° C 40% 1006 hPa 0 mm - - -
1777301603 30.56° C 40% 1006 hPa 0 mm - - -
1777301063 29.44° C 41% 1006.1 hPa 0 mm - - -
1777300523 30° C 41% 1006.2 hPa 0 mm - - -
1777299982 29.44° C 41% 1006.5 hPa 0 mm - - -
1777299443 29.44° C 41% 1006.4 hPa 0 mm - - -
1777298903 28.89° C 41% 1006.4 hPa 0 mm - - -
1777298362 28.89° C 41% 1006.5 hPa 0 mm - - -
1777297823 29.44° C 40% 1006.7 hPa 0 mm - - -
1777297282 28.89° C 42% 1006.6 hPa 0 mm - - -
1777296743 27.78° C 42% 1006.7 hPa 0 mm - - -
1777296203 27.78° C 43% 1006.9 hPa 0 mm - - -
1777295663 27.22° C 49% 1007 hPa 0 mm - - -
1777295123 26.67° C 49% 1006.9 hPa 0 mm - - -
1777294582 26.67° C 49% 1007.2 hPa 0 mm - - -
1777294043 26.11° C 51% 1007.2 hPa 0 mm - - -
1777293502 25° C 54% 1007.2 hPa 0 mm - - -
1777292963 25° C 53% 1007.5 hPa 0 mm - - -
1777292422 25° C 54% 1007.4 hPa 0 mm - - -
1777291883 24.44° C 53% 1007.5 hPa 0 mm - - -
1777291342 24.44° C 53% 1007.7 hPa 0 mm - - -
1777290802 23.89° C 55% 1007.9 hPa 0 mm - - -
1777290263 23.33° C 55% 1007.9 hPa 0 mm - - -
1777289723 23.33° C 55% 1007.9 hPa 0 mm - - -
1777289182 23.33° C 55% 1008 hPa 0 mm - - -

* Rain latest hour (hover to see other rain measurements)
** Current wind speed in m/s (hover to see current wind gust speed)